Weather History for Juneau, AK

Change the Weather History Date:

Saturday, March 9, 2013

  Actual Average Record
Temperature  
Mean Temperature 34 °F 32 °F  
Max Temperature 36 °F 38 °F 48 °F (1984)
Min Temperature 32 °F 27 °F -10 °F (1956)
Degree Days  
Heating Degree Days 31 33  
Month to date heating degree days 298 298  
Since 1 July heating degree days 6369 6135  
Cooling Degree Days 0 0  
Month to date cooling degree days 0 0  
Year to date cooling degree days 0 0  
Moisture  
Dew Point 33 °F    
Average Humidity 96    
Maximum Humidity 100    
Minimum Humidity 92    
Precipitation  
Precipitation 0.52 in 0.13 in 0.90 in (1966)
Month to date precipitation 0.85 1.21  
Year to date precipitation 15.16 10.69  
Snow  
Snow T in 0.40 in 17.70 in (1966)
Month to date snowfall T 4.3  
Since 1 July snowfall 63.4 78.3  
Snow Depth 0.00 in    
Sea Level Pressure  
Sea Level Pressure 30.05 in    
Wind  
Wind Speed 12 mph (East)    
Max Wind Speed 20 mph    
Max Gust Speed 23 mph    
Visibility 7 miles    
Events Rain , Snow    
T = Trace of Precipitation, MM = Missing Value Source: NWS Daily Summary

Daily Weather History Graph

Daily Weather History Graph

Search for Another Location

Airport:

Trip Planner

Search our weather history database for the weather conditions in past years. The results will help you decide how hot, cold, wet, or windy it might be!

Date:

Astronomy

Mar. 09, 2013 Rise Set
Actual Time 6:30 AM AKST 5:48 PM AKST
Civil Twilight 5:50 AM AKST 6:27 PM AKST
Nautical Twilight 5:04 AM AKST 7:14 PM AKST
Astronomical Twilight 4:16 AM AKST 8:02 PM AKST
Moon 5:20 AM AKST (3/9) 3:43 PM AKST (3/9)
Length of Visible Light 12h 37m
Length of Day
11h 18m
Waning Crescent, 5% of the Moon is Illuminated
Mar 9
Waning Crescent
Mar 11
New
Mar 19
First Quarter
Mar 27
Full
Apr 2
Last Quarter

Hourly Weather History & Observations

Time (AKST) Temp. Windchill Dew Point Humidity Pressure Visibility Wind Dir Wind Speed Gust Speed Precip Events Conditions
12:53 AM 35.1 °F 25.5 °F 33.1 °F 92% 30.13 in 8.0 mi East 15.0 mph - 0.03 in Rain Light Rain
1:14 AM 35.1 °F 27.9 °F 33.1 °F 92% 30.13 in 8.0 mi East 9.2 mph - 0.00 in Rain Light Rain
1:53 AM 35.1 °F 26.9 °F 33.1 °F 92% 30.13 in 9.0 mi East 11.5 mph - 0.01 in Rain Light Rain
3:53 AM 35.1 °F 25.9 °F 33.1 °F 92% 30.10 in 7.0 mi East 13.8 mph - 0.02 in Rain Light Rain
4:53 AM 35.1 °F 25.2 °F 33.1 °F 92% 30.10 in 10.0 mi East 16.1 mph - 0.02 in Rain Light Rain
5:53 AM 34.0 °F 23.4 °F 32.0 °F 92% 30.09 in 6.0 mi East 17.3 mph - 0.03 in Rain Light Rain
6:53 AM 34.0 °F 23.8 °F 32.0 °F 92% 30.08 in 7.0 mi East 16.1 mph - 0.01 in Rain Light Rain
7:07 AM 34.0 °F 23.4 °F 32.0 °F 92% 30.07 in 7.0 mi East 17.3 mph - 0.01 in Rain Light Rain
7:53 AM 35.1 °F 24.5 °F 33.1 °F 92% 30.06 in 8.0 mi ESE 18.4 mph - 0.02 in Rain Light Rain
8:53 AM 35.1 °F 25.5 °F 33.1 °F 92% 30.05 in 8.0 mi East 15.0 mph - 0.03 in Rain Light Rain
9:44 AM 36.0 °F 27.1 °F 34.0 °F 93% 30.04 in 10.0 mi East 13.8 mph - 0.01 in Rain Light Rain
9:53 AM 36.0 °F 26.7 °F 34.0 °F 93% 30.04 in 10.0 mi East 15.0 mph - 0.01 in Rain Light Rain
10:53 AM 35.1 °F 24.5 °F 33.1 °F 92% 30.04 in 10.0 mi ESE 18.4 mph - 0.00 in Rain Light Rain
11:53 AM 35.1 °F 26.4 °F 33.1 °F 92% 30.02 in 10.0 mi East 12.7 mph - 0.03 in Rain Light Rain
12:53 PM 36.0 °F 28.0 °F 34.0 °F 93% 30.00 in 10.0 mi East 11.5 mph - 0.00 in Rain Light Rain
1:44 PM 35.1 °F 26.4 °F 34.0 °F 96% 29.99 in 8.0 mi ESE 12.7 mph - 0.02 in Rain Light Rain
1:53 PM 35.1 °F 25.9 °F 34.0 °F 96% 29.99 in 8.0 mi ESE 13.8 mph - 0.03 in Rain , Snow Light Rain
2:53 PM 34.0 °F 26.6 °F 33.1 °F 96% 29.98 in 8.0 mi ENE 9.2 mph - 0.04 in Rain , Snow Light Rain
3:53 PM 34.0 °F 26.0 °F 33.1 °F 96% 29.97 in 6.0 mi East 10.4 mph - 0.04 in Rain , Snow Light Rain
4:53 PM 33.1 °F 25.5 °F 33.1 °F 100% 29.97 in 6.0 mi East 9.2 mph - 0.04 in Rain Light Rain
5:53 PM 32.0 °F 26.4 °F 32.0 °F 100% 29.98 in 3.0 mi ESE 5.8 mph - 0.03 in Rain , Snow Light Rain
6:00 PM 32.0 °F 26.4 °F 32.0 °F 100% 29.98 in 2.0 mi ESE 5.8 mph - 0.01 in Rain , Snow Light Rain
6:53 PM 33.1 °F 27.7 °F 32.0 °F 96% 30.00 in 2.0 mi East 5.8 mph - 0.03 in Rain , Snow Light Rain
7:53 PM 33.1 °F 26.1 °F 32.0 °F 96% 30.01 in 3.0 mi ENE 8.1 mph - 0.04 in Rain , Snow Light Rain
8:53 PM 33.1 °F 24.9 °F 32.0 °F 96% 30.04 in 7.0 mi ENE 10.4 mph - 0.02 in Rain Light Rain
9:53 PM 33.1 °F 26.1 °F 32.0 °F 96% 30.07 in 5.0 mi ENE 8.1 mph - 0.01 in Rain Light Rain
10:53 PM 34.0 °F 25.0 °F 32.0 °F 92% 30.11 in 8.0 mi East 12.7 mph - 0.00 in   Overcast
11:53 PM 34.0 °F 26.6 °F 32.0 °F 92% 30.14 in 10.0 mi East 9.2 mph - 0.00 in   Overcast